Regional Weather Roundup
Issued by NWS

Home | Current Version | Previous Version | Graphics & Text | Print | Product List | Glossary Off
Versions: 1 2 3 4 5 6 7 8 9 10 11 12 13 14 15 16 17 18 19 20 21 22 23 24 25 26 27 28 29 30 31 32 33 34 35 36 37 38 39 40 41 42 43 44 45 46 47 48 49 50

000
ASUS43 KOAX 310410
RWRNE

WEATHER ROUNDUP FOR NEBRASKA
NATIONAL WEATHER SERVICE OMAHA NE
1100 PM CDT TUE AUG 30 2016

NOTES: SATELLITE DATA IS BEING USED TO AUGMENT CLOUD COVER ABOVE
       12000 FEET.
       "FAIR" INDICATES FEW OR NO CLOUDS BELOW 12,000 FEET WITH NO
       SIGNIFICANT WEATHER AND/OR OBSTRUCTIONS TO VISIBILITY.

  * THESE STATIONS DO NOT REPORT WEATHER SUCH AS RAIN...SNOW OR FOG.

NEZ001>004-019>022-054>056-310500-
NEBRASKA PANHANDLE

CITY           SKY/WX    TMP DP  RH WIND       PRES   REMARKS
SCOTTSBLUFF    CLEAR     64  59  83 E7        30.26R
ALLIANCE       CLEAR     62  58  86 SE5       30.26R
CHADRON        CLEAR     71  55  56 S14       30.21R
KIMBALL        CLEAR     60  59  96 S7        30.32R
SIDNEY         MOCLDY    63  59  87 SE8       30.30R
$$

NEZ057>060-069>072-079>082-310500-
SOUTHWEST NEBRASKA

CITY           SKY/WX    TMP DP  RH WIND       PRES   REMARKS
NORTH PLATTE   PTCLDY    67  64  90 E5        30.25R
IMPERIAL       CLOUDY    66  63  90 E7        30.25S
LEXINGTON      CLOUDY    69  65  89 E5        30.24S
MCCOOK         CLOUDY    69  65  86 NE5       30.23S
OGALLALA       PTCLDY    67  62  82 CALM      30.26S
$$

NEZ005>010-023>029-035>040-094-310500-
NORTH CENTRAL NEBRASKA

CITY           SKY/WX    TMP DP  RH WIND       PRES   REMARKS
VALENTINE      CLEAR     69  62  78 SE5       30.21S
AINSWORTH      PTCLDY    64  62  91 S5        30.23S
BROKEN BOW     PTCLDY    61  61 100 CALM      30.24S
O`NEILL        MOCLDY    71  66  85 SE5       30.22S
ORD            CLOUDY    68  64  87 CALM      30.21S
THEDFORD       MOCLDY    70  63  78 S10       30.25S
$$

NEZ041-046>049-061>064-073>077-083>087-310500-
SOUTH CENTRAL NEBRASKA

CITY           SKY/WX    TMP DP  RH WIND       PRES   REMARKS
GRAND ISLAND   LGT RAIN  70  68  93 CALM      30.22S
AURORA         CLOUDY    68  68 100 CALM      30.21S
HASTINGS       MOCLDY    70  68  93 E6        30.22F
HEBRON         LGT RAIN  70  69  96 NE3       30.18F
HOLDREGE       CLOUDY    67  65  92 CALM      30.22S
KEARNEY *      CLOUDY    70  66  88 NE5       30.22S
YORK           CLOUDY    68  68 100 CALM      30.20F
$$

NEZ011>018-030>034-042>045-310500-
NORTHEAST NEBRASKA

CITY           SKY/WX    TMP DP  RH WIND       PRES   REMARKS
NORFOLK        PTCLDY    68  65  90 CALM      30.20S
ALBION         CLOUDY    67  65  91 CALM      30.21S FOG
BLAIR          CLOUDY    72  69  89 CALM      30.17F
FREMONT        CLOUDY    70  69  97 CALM      30.18F
TEKAMAH        CLOUDY    70  68  93 N5        30.17S
WAYNE          CLOUDY    67  66  97 CALM      30.20S FOG
$$

NEZ050>053-065>068-078-088>093-310500-
SOUTHEAST NEBRASKA

CITY           SKY/WX    TMP DP  RH WIND       PRES   REMARKS
LINCOLN        MOCLDY    72  70  93 N5        30.18F
OMAHA EPPLEY   CLOUDY    74  70  87 N3        30.16F
BEATRICE       LGT RAIN  71  70  95 CALM      30.17S
FALLS CITY     CLOUDY    73  70  90 CALM      30.14S
NEBRASKA CITY  RAIN      72  72 100 N3        30.17S
PLATTSMOUTH    DRIZZLE   73  70  92 CALM      30.17S
$$

NEZ044-045-051>053-067-310500-
OMAHA AREA

CITY           SKY/WX    TMP DP  RH WIND       PRES   REMARKS
OMAHA EPPLEY   CLOUDY    74  70  87 N3        30.16F
BLAIR          CLOUDY    72  69  89 CALM      30.17F
FREMONT        CLOUDY    70  69  97 CALM      30.18F
MILLARD        CLOUDY   N/A N/A N/A CALM      30.16F
OFFUTT AFB     CLOUDY    72  72 100 NW2       30.15F
PLATTSMOUTH    DRIZZLE   73  70  92 CALM      30.17S
WAHOO          CLOUDY    71  69  93 CALM      30.17F
$$




USA.gov is the U.S. government's official web portal to all federal, state and local government web resources and services.